This demonstration page uses our WeatherBlox Daily Observations layout. Learn more.

Left ArrowRight Arrow

38.89511, -77.03637

Hourly Observations for March 18, 2021

Temp ( °F °C ) Dew Point ( °F °C ) Humidity (%) Winds ( mph kmh ) Pressure ( in mb ) Visibility ( mi km ) Precip ( " mm )
12:22 am 00:22 Cloudy 49 9.4 44 6.7 83 83 SE 7 11 30.08 1019 9 14.48406 0 0
12:52 am 00:52 Cloudy 48 8.9 44 6.7 86 86 SSE 5 7 30.08 1019 9 14.48406 0 0
1:15 am 01:15 Cloudy 48 8.9 44 6.7 86 86 SSE 6 9 30.07 1018 7 11.26538 0 0
1:52 am 01:52 Cloudy with Mist and Fog 48 8.9 45 7.2 89 89 SE 6 9 30.08 1019 4 6.43736 0 0
2:02 am 02:02 Cloudy with Mist and Fog 47 8.3 45 7.2 93 93 SSE 5 7 30.08 1019 3 4.82802 0 0
2:09 am 02:09 Cloudy with Mist and Fog 47 8.3 45 7.2 93 93 SE 3 6 30.07 1018 2.5 4.02335 0 0
2:28 am 02:28 Cloudy with Mist and Fog 47 8.3 46 7.8 97 97 SSE 3 6 30.07 1018 3 4.82802 0 0
2:52 am 02:52 Cloudy with Mist and Fog 47 8.3 46 7.8 97 97 S 6 9 30.07 1018 2 3.21868 0 0
3:02 am 03:02 Cloudy with Mist and Fog 47 8.3 46 7.8 97 97 SSE 5 7 30.07 1018 1.5 2.41401 0 0
3:14 am 03:14 Cloudy with Mist and Fog 47 8.3 46 7.8 97 97 SSE 5 7 30.06 1018 1.25 2.011675 0 0
3:52 am 03:52 Cloudy with Mist and Fog 47 8.3 46 7.8 97 97 SE 6 9 30.04 1017 1.5 2.41401 0 0
4:08 am 04:08 Cloudy with Mist and Fog 47 8.3 46 7.8 97 97 SE 6 9 30.03 1017 2 3.21868 0 0
4:20 am 04:20 Cloudy with Mist and Fog 47 8.3 46 7.8 97 97 SE 7 11 30.01 1016 2.5 4.02335 0 0
4:30 am 04:30 Cloudy with Mist and Fog 48 8.9 46 7.8 93 93 SE 6 9 30.01 1016 4 6.43736 0 0
4:52 am 04:52 Cloudy with Light Rain 48 8.9 46 7.8 93 93 SE 5 7 30.01 1016 8 12.87472 0.001 0.001
5:03 am 05:03 Cloudy with Light Rain 48 8.9 47 8.3 96 96 SSE 6 9 30.02 1017 7 11.26538 0.001 0.001
5:52 am 05:52 Cloudy with Light Rain 48 8.9 46 7.8 93 93 SSE 8 13 29.99 1016 10 16.0934 0.02 0.508
6:52 am 06:52 Cloudy with Light Rain 48 8.9 47 8.3 96 96 S 8 13 29.98 1015 5 8.0467 0.07 1.778
7:15 am 07:15 Cloudy with Light Rain 48 8.9 46 7.8 93 93 ESE 5 7 29.95 1014 5 8.0467 0.03 0.762
7:52 am 07:52 Cloudy with Light Rain 48 8.9 46 7.8 93 93 SSE 6 9 29.95 1014 5 8.0467 0.08 2.032
8:25 am 08:25 Cloudy with Light Rain 49 9.4 46 7.8 90 90 S 7 11 29.95 1014 5 8.0467 0.02 0.508
8:38 am 08:38 Cloudy with Light Rain 49 9.4 47 8.3 93 93 S 6 9 29.93 1014 6 9.65604 0.03 0.762
8:52 am 08:52 Cloudy with Light Rain 49 9.4 47 8.3 93 93 SSE 3 6 29.92 1013 6 9.65604 0.03 0.762
9:25 am 09:25 Cloudy with Drizzle 49 9.4 47 8.3 93 93 S 6 9 29.91 1013 7 11.26538 0.03 0.762
9:52 am 09:52 Cloudy 49 9.4 47 8.3 93 93 Calm 29.89 1012 10 16.0934 0.03 0.762
10:52 am 10:52 Cloudy 50 10 48 8.9 93 93 S 7 11 29.88 1012 10 16.0934 0.001 0.001
11:37 am 11:37 Cloudy with Drizzle 50 10 49 9.4 96 96 SSW 5 7 29.86 1011 2.5 4.02335 0.01 0.254
11:50 am 11:50 Cloudy with Light Rain 50 10 48 9 94 94 S 6 9 29.85 1011 2.5 4.02335 0.01 0.254
11:52 am 11:52 Cloudy with Light Rain 50 10 49 9.4 96 96 S 6 9 29.85 1011 2.5 4.02335 0.01 0.254
12:00 pm 12:00 Cloudy with Light Rain 50 10 49 9.4 96 96 S 6 9 29.84 1011 2 3.21868 0.01 0.254
12:28 pm 12:28 Cloudy with Light Rain 50 10 49 9.4 96 96 S 6 9 29.84 1011 2 3.21868 0.02 0.508
12:52 pm 12:52 Cloudy with Light Rain 50 10 49 9.4 96 96 S 8 13 29.84 1010 2 3.21868 0.03 0.762
1:52 pm 13:52 Cloudy with Mist and Fog 51 10.6 50 10 96 96 S 6 9 29.81 1009 4 6.43736 0.02 0.508
1:59 pm 13:59 Cloudy with Light Rain 51 10.6 50 10 96 96 S 6 9 29.81 1010 5 8.0467 0.001 0.001
2:44 pm 14:44 Cloudy 51 10.6 51 10.6 100 100 SSE 5 7 29.77 1008 10 16.0934 0.03 0.762
2:52 pm 14:52 Cloudy 51 10.6 50 10 96 96 SSE 7 11 29.76 1008 10 16.0934 0.03 0.762
3:25 pm 15:25 Cloudy 52 11.1 51 10.6 97 97 S 7 11 29.74 1007 10 16.0934 0.001 0.001
3:52 pm 15:52 Cloudy 52 11.1 51 10.6 97 97 S 7 11 29.72 1007 10 16.0934 0.001 0.001
4:36 pm 16:36 Cloudy with Light Rain 52 11.1 50 10 93 93 S 6 9 29.72 1006 7 11.26538 0.001 0.001
4:52 pm 16:52 Cloudy with Light Rain 53 11.7 51 10.6 93 93 S 3 6 29.71 1006 8 12.87472 0.02 0.508
5:52 pm 17:52 Cloudy 53 11.7 51 10.6 93 93 Calm 29.69 1006 10 16.0934 0.001 0.001
6:25 pm 18:25 Cloudy 54 12.2 51 10.6 90 90 N 5 7 29.68 1005 10 16.0934 0 0
6:52 pm 18:52 Cloudy with Light Rain 53 11.7 51 10.6 93 93 N 5 7 29.69 1006 7 11.26538 0.01 0.254
7:27 pm 19:27 Cloudy with Light Rain 53 11.7 51 10.6 93 93 N 7 11 29.7 1006 5 8.0467 0.02 0.508
7:52 pm 19:52 Cloudy 53 11.7 51 10.6 93 93 NNE 14 22 29.67 1005 9 14.48406 0.02 0.508
8:18 pm 20:18 Cloudy with Light Rain 51 10.6 50 10 96 96 NE 13 20 29.7 1006 6 9.65604 0.001 0.001
8:52 pm 20:52 Cloudy with Drizzle 51 10.6 49 9.4 92 92 NNE 15 24 29.71 1006 3 4.82802 0.001 0.001
9:09 pm 21:09 Cloudy with Light Rain 50 10 49 9.4 96 96 NE 12 19 29.7 1006 7 11.26538 0.001 0.001
9:28 pm 21:28 Cloudy 50 10 48 8.9 93 93 NNE 14 22 29.73 1007 10 16.0934 0.001 0.001
9:52 pm 21:52 Cloudy 50 10 48 8.9 93 93 NNE 18 30 29.71 1006 10 16.0934 0.001 0.001
10:06 pm 22:06 Cloudy with Mist and Fog 50 10 48 8.9 93 93 N 17 28 29.72 1006 3 4.82802 0 0
10:09 pm 22:09 Cloudy with Light Rain 50 10 48 8.9 93 93 NNE 22 35 29.72 1006 3 4.82802 0.001 0.001
10:13 pm 22:13 Cloudy with Light Rain 50 10 48 8.9 93 93 NNE 22 35 29.72 1006 3 4.82802 0.001 0.001
10:52 pm 22:52 Cloudy with Mist and Fog 48 8.9 46 7.8 93 93 N 20 31 29.75 1008 4 6.43736 0.001 0.001
11:11 pm 23:11 Cloudy 48 8.9 45 7.2 89 89 NNE 22 35 29.76 1008 10 16.0934 0 0
11:28 pm 23:28 Cloudy 48 8.9 45 7.2 89 89 NNE 18 30 29.78 1009 10 16.0934 0 0
11:52 pm 23:52 Cloudy 48 8.9 44 6.7 86 86 NNE 16 26 29.77 1008 10 16.0934 0 0

Powered by AerisWeather